Voltar ao catálogo

STARLINK-37347

AtivoComunicaçõesSSO
NORAD 68746·PAYLOAD·🇺🇸 United States

Lançado Apr 15, 2026 de Vandenberg Space Force Base

Loading…

Próximas Passagens (próximas 24 horas)

TLE

AtualizadoSource: CelesTrak SupGP

Época: Sep 15, 2026, 04:16 UTC

1 68746C 26082U   26258.17826389 -.00028115  00000+0 -87263-3 0  2581
2 68746  97.2844 120.4146 0002081  94.5139 157.0481 15.33457313    19

Acompanhe STARLINK-37347 em tempo real com AllMySat

Download on the App Store